SES-21

Last updated on Tue Sep 22 2026 00:03:15 GMT+0000 (Coordinated Universal Time)

1 53961U 22123B 26264.11344759 .00000065 00000+0 00000+0 0 9997 2 53961 0.0356 61.9519 0001204 121.6257 86.2724 1.00273692 8177
UTC large
Height (km)
Speed (km/s)
/
Latitude / Longitude
Inclination (degrees)
Orbital Period (minutes)
Azimuth
Elevation
Range (km)
Doppler Factor

Next 0 passes for location: London (51.5072 / 0.1276)

No passes found over London.
SES-21